Location: Unspecified
(41.5000°N, 0.0000°E)
Time: 21:59:34
(UTC+00:00)

Courier 1B - Visible Passes

Search period start: 18 June 2019 00:00
Search period end: 28 June 2019 00:00
Orbit: 963 x 1209 km, 28.3° (Epoch: 18 June)

Date Brightness Start Highest point End Pass type
(mag) Time Alt. Az. Time Alt. Az. Time Alt. Az.
18 Jun 8.9 20:11:01 10° SW 20:17:00 26° SSE 20:23:10 10° ESE visible
18 Jun 8.6 22:03:54 10° WSW 22:10:26 30° S 22:11:03 30° S visible
19 Jun 8.7 21:10:15 10° SW 21:16:41 30° S 21:20:27 21° SE visible
19 Jun 9.2 23:04:03 10° WSW 23:07:20 21° SW 23:07:20 21° SW visible
20 Jun 8.8 20:16:44 10° SW 20:22:58 29° S 20:29:25 10° ESE visible
20 Jun 8.7 22:10:09 10° WSW 22:16:25 28° S 22:16:39 27° S visible
21 Jun 8.7 21:16:23 10° WSW 21:22:41 29° S 21:25:56 22° SSE visible
21 Jun 9.6 23:10:50 10° WSW 23:12:48 15° SW 23:12:48 15° SW visible
22 Jun 8.8 20:22:45 10° WSW 20:28:58 30° S 20:35:11 11° SE visible
22 Jun 9.0 22:16:42 10° WSW 22:22:04 22° SSW 22:22:04 22° SSW visible
23 Jun 8.9 21:22:47 10° WSW 21:28:40 25° SSW 21:31:18 21° SSE visible
24 Jun 8.9 20:29:01 10° WSW 20:34:59 27° S 20:40:32 12° SE visible
24 Jun 9.4 22:23:51 10° WSW 22:27:24 16° SSW 22:27:24 16° SSW visible
25 Jun 9.2 21:29:35 10° WSW 21:34:36 19° SSW 21:36:39 17° S visible
26 Jun 9.1 20:35:36 10° WSW 20:40:57 22° SSW 20:45:54 12° SSE visible
27 Jun 9.5 21:37:21 10° SW 21:40:30 13° SSW 21:42:04 12° S visible
